CW0060 Weather Reports


Display with metric or nautical units.
time (UTC)temp
F
wind
direction
speed
MPH
gust
MPH
rain 1hr
in
rain 24hr
in
rain mn
in
humidity
%
barometer
mb
20260503212705 63 245 5.0 10.0 0.00 0.00 0.00 46 1013.4
20260503212206 63 302 6.0 12.0 0.00 0.00 0.00 45 1013.5
20260503211705 63 269 5.0 12.0 0.00 0.00 0.00 45 1013.5
20260503211205 64 318 6.0 13.0 0.00 0.00 0.00 45 1013.6
20260503210205 64 277 6.0 15.0 0.00 0.00 0.00 45 1013.3
20260503205705 64 248 7.0 15.0 0.00 0.00 0.00 44 1013.2
20260503205206 64 271 6.0 12.0 0.00 0.00 0.00 44 1013.0
20260503204705 64 281 6.0 12.0 0.00 0.00 0.00 44 1013.2
20260503204205 64 4 6.0 11.0 0.00 0.00 0.00 44 1013.2
20260503203706 64 257 6.0 11.0 0.00 0.00 0.00 44 1012.8
20260503203205 65 295 6.0 12.0 0.00 0.00 0.00 44 1012.8
20260503202706 65 278 6.0 17.0 0.00 0.00 0.00 44 1012.8
20260503201705 65 255 6.0 17.0 0.00 0.00 0.00 44 1012.8
20260503201208 65 293 6.0 16.0 0.00 0.00 0.00 44 1012.7
20260503200705 65 245 7.0 16.0 0.00 0.00 0.00 43 1012.7
20260503195705 66 298 8.0 17.0 0.00 0.00 0.00 43 1012.6
20260503195205 66 304 8.0 21.0 0.00 0.00 0.00 43 1012.6
20260503194706 66 265 8.0 21.0 0.00 0.00 0.00 42 1012.5
20260503194205 66 324 9.0 19.0 0.00 0.00 0.00 43 1012.5
20260503193705 66 303 11.0 19.0 0.00 0.00 0.00 43 1012.4
20260503193205 66 248 9.0 19.0 0.00 0.00 0.00 43 1012.4
20260503192205 67 279 4.0 11.0 0.00 0.00 0.00 45 1012.3
20260503191705 68 310 2.0 4.0 0.00 0.00 0.00 44 1012.1
20260503191206 68 283 1.0 3.0 0.00 0.00 0.00 44 1011.9
20260503190705 68 295 1.0 2.0 0.00 0.00 0.00 44 1011.9
20260503190205 68 231 0.0 2.0 0.00 0.00 0.00 44 1011.8
20260503185705 69 277 0.0 2.0 0.00 0.00 0.00 43 1011.7
20260503184205 69 286 1.0 3.0 0.00 0.00 0.00 41 1011.7
20260503183705 69 269 1.0 5.0 0.00 0.00 0.00 40 1011.6
20260503183214 69 269 2.0 5.0 0.00 0.00 0.00 40 1011.6
20260503182705 70 295 2.0 5.0 0.00 0.00 0.00 40 1011.6
20260503182205 70 208 2.0 6.0 0.00 0.00 0.00 39 1011.5
20260503181206 70 276 5.0 10.0 0.00 0.00 0.00 39 1011.4
20260503180705 70 245 5.0 9.0 0.00 0.00 0.00 39 1011.4
20260503180214 70 245 4.0 8.0 0.00 0.00 0.00 39 1011.4
20260503175705 70 248 4.0 8.0 0.00 0.00 0.00 39 1011.4
20260503175205 71 243 4.0 10.0 0.00 0.00 0.00 39 1011.3
20260503174705 71 236 5.0 10.0 0.00 0.00 0.00 39 1011.3
20260503174206 71 248 5.0 10.0 0.00 0.00 0.00 39 1011.3
20260503173705 71 243 5.0 7.0 0.00 0.00 0.00 40 1011.3
20260503173205 71 269 4.0 9.0 0.00 0.00 0.00 40 1011.3
20260503172205 71 182 4.0 9.0 0.00 0.00 0.00 40 1011.1
20260503171230 71 272 3.0 7.0 0.00 0.00 0.00 40 1011.1
20260503170705 71 314 3.0 8.0 0.00 0.00 0.00 41 1011.2
20260503170205 72 278 3.0 10.0 0.00 0.00 0.00 41 1011.2
20260503160205 76 210 7.0 13.0 0.00 0.00 0.00 35 1011.1
20260503150705 74 240 5.0 9.0 0.00 0.00 0.00 37 1011.4
20260503150208 74 274 6.0 12.0 0.00 0.00 0.00 37 1011.4
20260503140205 74 214 7.0 13.0 0.00 0.00 0.00 40 1012.1
20260503131206 74 193 5.0 8.0 0.00 0.00 0.00 36 1012.5
20260503130705 74 135 4.0 10.0 0.00 0.00 0.00 36 1012.5
20260503120205 75 240 3.0 9.0 0.00 0.00 0.00 37 1013.2
20260503110705 73 219 4.0 10.0 0.00 0.00 0.00 37 1013.7
20260503110204 73 253 5.0 10.0 0.00 0.00 0.00 38 1013.7
20260503100205 70 264 5.0 9.0 0.00 0.00 0.00 44 1014.4
20260503090205 67 243 4.0 8.0 0.00 0.00 0.00 47 1014.7
20260503080705 63 314 1.0 3.0 0.00 0.00 0.00 58 1015.0
20260503071705 55 46 1.0 4.0 0.00 0.00 0.00 73 1015.0
20260503070205 53 250 1.0 3.0 0.00 0.00 0.00 77 1015.0
20260503060206 48 262 2.0 4.0 0.00 0.00 0.00 86 1014.7
20260503054705 47 286 2.0 6.0 0.00 0.00 0.00 86 1014.6
20260503054206 47 34 2.0 7.0 0.00 0.00 0.00 85 1014.7
20260503053705 47 305 3.0 7.0 0.00 0.00 0.00 85 1014.8
20260503053206 47 1 3.0 4.0 0.00 0.00 0.00 85 1014.7
20260503052706 46 220 2.0 3.0 0.00 0.00 0.00 85 1014.6
20260503051705 46 46 2.0 5.0 0.00 0.00 0.00 84 1014.4
20260503051205 46 1 2.0 5.0 0.00 0.00 0.00 84 1014.5
20260503050705 45 252 2.0 3.0 0.00 0.00 0.00 83 1014.4
20260503050205 45 65 1.0 2.0 0.00 0.00 0.00 83 1014.3
20260503045705 45 51 1.0 2.0 0.00 0.00 0.00 83 1014.3
20260503045205 45 269 1.0 2.0 0.00 0.00 0.00 83 1014.4
20260503044706 45 1 1.0 2.0 0.00 0.00 0.00 83 1014.3
20260503044205 45 117 1.0 2.0 0.00 0.00 0.00 83 1014.3
20260503043705 45 39 1.0 2.0 0.00 0.00 0.00 83 1014.3
20260503043205 45 46 0.0 3.0 0.00 0.00 0.00 83 1014.3
20260503042705 45 46 1.0 3.0 0.00 0.00 0.00 82 1014.3
20260503042205 45 89 1.0 3.0 0.00 0.00 0.00 82 1014.3
20260503041705 46 68 1.0 2.0 0.00 0.00 0.00 82 1014.4
20260503041206 46 46 1.0 2.0 0.00 0.00 0.00 82 1014.4
20260503035705 46 269 1.0 3.0 0.00 0.00 0.00 82 1014.5
20260503035206 46 11 1.0 3.0 0.00 0.00 0.00 81 1014.5
20260503034706 46 32 0.0 1.0 0.00 0.00 0.00 81 1014.5
20260503034206 46 35 0.0 4.0 0.00 0.00 0.00 81 1014.5
20260503033705 46 89 1.0 4.0 0.00 0.00 0.00 81 1014.4
20260503032705 46 89 2.0 4.0 0.00 0.00 0.00 80 1014.3
20260503032205 46 67 2.0 4.0 0.00 0.00 0.00 80 1014.3
20260503031705 46 53 2.0 3.0 0.00 0.00 0.00 80 1014.3
20260503031205 46 72 2.0 3.0 0.00 0.00 0.00 80 1014.4
20260503030705 47 65 1.0 6.0 0.00 0.00 0.00 80 1014.5
20260503030205 47 269 1.0 7.0 0.00 0.00 0.00 80 1014.6
20260503025706 47 112 2.0 7.0 0.00 0.00 0.00 79 1014.5
20260503025204 47 46 3.0 6.0 0.00 0.00 0.00 79 1014.3
20260503024206 47 95 1.0 5.0 0.00 0.00 0.00 79 1014.7
20260503023705 47 46 1.0 5.0 0.00 0.00 0.00 78 1014.7
20260503023205 47 89 2.0 5.0 0.00 0.00 0.00 78 1014.8
20260503022705 47 276 2.0 5.0 0.00 0.00 0.00 78 1014.8
20260503022205 47 257 2.0 4.0 0.00 0.00 0.00 77 1014.8
20260503021706 47 283 2.0 4.0 0.00 0.00 0.00 77 1014.7
20260503020705 47 240 0.0 2.0 0.00 0.00 0.00 76 1014.6
20260503020205 48 178 1.0 2.0 0.00 0.00 0.00 76 1014.5
20260503015705 48 35 2.0 2.0 0.00 0.00 0.00 76 1014.5
20260503015206 48 68 1.0 2.0 0.00 0.00 0.00 76 1014.5
20260503014206 48 135 1.0 2.0 0.00 0.00 0.00 76 1014.6
20260503013733 48 51 1.0 2.0 0.00 0.00 0.00 75 1014.7
20260503012705 48 89 1.0 1.0 0.00 0.00 0.00 75 1014.7
20260503012208 48 20 1.0 1.0 0.00 0.00 0.00 75 1014.8
20260503011205 48 117 0.0 2.0 0.00 0.00 0.00 74 1014.8
20260503010731 49 28 0.0 2.0 0.00 0.00 0.00 74 1014.8
20260503005706 49 53 0.0 2.0 0.00 0.00 0.00 73 1014.9
20260503005206 49 178 0.0 2.0 0.00 0.00 0.00 73 1014.9
20260503004705 49 89 1.0 2.0 0.00 0.00 0.00 73 1014.9
20260503004205 49 58 1.0 2.0 0.00 0.00 0.00 73 1014.9
20260503003705 49 72 1.0 2.0 0.00 0.00 0.00 72 1015.0
20260503002705 49 37 1.0 1.0 0.00 0.00 0.00 72 1015.0
20260503002205 50 222 0.0 2.0 0.00 0.00 0.00 72 1015.0
20260503001705 50 89 1.0 2.0 0.00 0.00 0.00 71 1015.1
20260503001206 50 63 1.0 2.0 0.00 0.00 0.00 71 1015.1
20260503000205 50 89 1.0 2.0 0.00 0.00 0.00 71 1015.1
20260502235709 50 89 0.0 1.0 0.00 0.00 0.00 70 1015.2
20260502235205 50 20 0.0 3.0 0.00 0.00 0.00 70 1015.2
20260502234705 51 28 1.0 3.0 0.00 0.00 0.00 70 1015.2
20260502234206 51 269 1.0 3.0 0.00 0.00 0.00 70 1015.2
20260502233705 51 49 1.0 2.0 0.00 0.00 0.00 69 1015.2
20260502233205 51 35 0.0 2.0 0.00 0.00 0.00 69 1015.3
20260502232208 51 46 1.0 2.0 0.00 0.00 0.00 68 1015.3
20260502231705 52 46 0.0 2.0 0.00 0.00 0.00 68 1015.4
20260502231205 52 178 1.0 2.0 0.00 0.00 0.00 68 1015.3
20260502230729 52 46 0.0 2.0 0.00 0.00 0.00 67 1015.4
20260502225705 52 63 1.0 2.0 0.00 0.00 0.00 67 1015.3
20260502225205 53 269 1.0 2.0 0.00 0.00 0.00 66 1015.4
20260502224205 53 46 1.0 2.0 0.00 0.00 0.00 66 1015.5
20260502223705 53 72 1.0 3.0 0.00 0.00 0.00 65 1015.5
20260502222705 53 53 2.0 3.0 0.00 0.00 0.00 64 1015.6
20260502222205 53 56 2.0 3.0 0.00 0.00 0.00 63 1015.5
20260502221705 54 68 2.0 3.0 0.00 0.00 0.00 63 1015.6
20260502220704 54 53 1.0 2.0 0.00 0.00 0.00 63 1015.6
20260502220205 54 135 0.0 1.0 0.00 0.00 0.00 62 1015.6
20260502215705 54 46 0.0 3.0 0.00 0.00 0.00 62 1015.6
20260502215205 55 331 0.0 3.0 0.00 0.00 0.00 62 1015.6
20260502214205 55 53 1.0 2.0 0.00 0.00 0.00 61 1015.6
20260502213206 56 46 0.0 2.0 0.00 0.00 0.00 60 1015.6